AFR1256 EHAM-LFPO

Flight info

Callsign AFR1256
Flight time N/A
Altitude 29000
Route WOODY N872 NIK UY131 NILEM DCT MOPIL
Aircraft A319/M-SDE3FGHIRWY/LB1

Departure

Time 2026-05-01 15:29
Airport Amsterdam Airport Schiphol (EHAM)

Arrival

Time N/A
Airport Paris-Orly Airport (LFPO)
Time Latitude Longitude Altitude Speed Heading
2026-05-01 15:05 52.31203 4.77376 -4 ft 0 kts 182°
2026-05-01 15:22 52.31220 4.77377 -4 ft 2 kts 182°
2026-05-01 15:22 52.31235 4.77378 -4 ft 2 kts 182°
2026-05-01 15:22 52.31250 4.77379 -4 ft 2 kts 182°
2026-05-01 15:23 52.31265 4.77380 -4 ft 2 kts 182°
2026-05-01 15:23 52.31275 4.77381 -4 ft 2 kts 184°
2026-05-01 15:23 52.31287 4.77373 -4 ft 2 kts 125°
2026-05-01 15:23 52.31290 4.77360 -4 ft 1 kts 93°
2026-05-01 15:24 52.31290 4.77349 -4 ft 0 kts 92°
2026-05-01 15:25 52.31290 4.77351 -4 ft 0 kts 93°
2026-05-01 15:25 52.31289 4.77374 -4 ft 3 kts 93°
2026-05-01 15:26 52.31287 4.77426 -4 ft 6 kts 94°
2026-05-01 15:26 52.31283 4.77529 -4 ft 11 kts 94°
2026-05-01 15:26 52.31311 4.77644 -4 ft 12 kts 21°
2026-05-01 15:26 52.31403 4.77656 -4 ft 13 kts 356°
2026-05-01 15:27 52.31491 4.77594 -4 ft 14 kts 320°
2026-05-01 15:27 52.31577 4.77591 -4 ft 14 kts 59°
2026-05-01 15:27 52.31594 4.77761 -4 ft 15 kts 90°
2026-05-01 15:28 52.31334 4.77942 -4 ft 68 kts 182°
2026-05-01 15:28 52.30623 4.77875 -3 ft 135 kts 182°
2026-05-01 15:28 52.29538 4.77759 206 ft 168 kts 180°
2026-05-01 15:29 52.27197 4.77951 1666 ft 170 kts 160°
2026-05-01 15:29 52.26106 4.78546 2416 ft 173 kts 161°
2026-05-01 15:29 52.23560 4.79783 3357 ft 212 kts 163°
2026-05-01 15:30 52.20988 4.80625 4273 ft 243 kts 176°
2026-05-01 15:31 52.13318 4.79683 7925 ft 266 kts 185°
2026-05-01 15:31 52.09618 4.79156 9651 ft 273 kts 184°
2026-05-01 15:32 52.05803 4.78618 11048 ft 289 kts 184°
2026-05-01 15:32 52.01550 4.78027 12021 ft 320 kts 184°
2026-05-01 15:33 51.94863 4.77083 14363 ft 329 kts 185°
2026-05-01 15:34 51.88236 4.73557 16464 ft 345 kts 204°